Location: Unspecified
(0.0000°N, 0.0000°E)
Time: 05:36:18
(UTC+00:00)

BlueWalker 3 - Pass Details

Date: 18 August 2024
Orbit: 475 x 487 km, 53.2° (Epoch: 14 September)

Event Time Altitude Azimuth Distance (km) Brightness Sun altitude
Rises 18:38:39 0° 179° (S) 2,521 5.3 -8.5°
Reaches altitude 10° 18:42:24 10° 140° (SE) 1,643 4.1 -9.4°
Enters shadow 18:43:10 11° 128° (SE) 1,596 3.9 -9.6°
